LOCATION_NAME,SAMPLE COLLECTION TIME,DOSE EQUIVALENT RATE (nSv/h),GAMMA COUNT RATE R02 (CPM),GAMMA COUNT RATE R03 (CPM),GAMMA COUNT RATE R04 (CPM),GAMMA COUNT RATE R05 (CPM),GAMMA COUNT RATE R06 (CPM),GAMMA COUNT RATE R07 (CPM),GAMMA COUNT RATE R08 (CPM),GAMMA COUNT RATE R09 (CPM),STATUS
OR: CORVALLIS,01/01/2016 00:55:00,,1515.00,948.00,304.00,156.00,99.00,128.00,76.00,31.00,APPROVED
OR: CORVALLIS,01/01/2016 01:55:00,,1573.00,990.00,301.00,156.00,102.00,128.00,75.00,28.00,APPROVED
OR: CORVALLIS,01/01/2016 02:56:00,,1623.00,988.00,305.00,157.00,100.00,131.00,76.00,30.00,APPROVED
OR: CORVALLIS,01/01/2016 03:56:00,,1626.00,994.00,310.00,155.00,101.00,129.00,74.00,30.00,APPROVED
OR: CORVALLIS,01/01/2016 04:56:00,,1638.00,997.00,305.00,156.00,100.00,129.00,75.00,29.00,APPROVED
OR: CORVALLIS,01/01/2016 05:56:00,,1649.00,1007.00,311.00,158.00,100.00,133.00,71.00,31.00,APPROVED
OR: CORVALLIS,01/01/2016 06:56:00,,1662.00,1006.00,309.00,155.00,101.00,132.00,74.00,30.00,APPROVED
OR: CORVALLIS,01/01/2016 07:56:00,,1666.00,1006.00,315.00,159.00,100.00,133.00,70.00,30.00,APPROVED
OR: CORVALLIS,01/01/2016 08:57:00,,1661.00,1014.00,310.00,157.00,101.00,132.00,72.00,28.00,APPROVED
OR: CORVALLIS,01/01/2016 09:57:00,,1658.00,1014.00,311.00,157.00,98.00,133.00,73.00,31.00,APPROVED
OR: CORVALLIS,01/01/2016 10:57:00,,1669.00,1015.00,316.00,160.00,101.00,131.00,71.00,29.00,APPROVED
OR: CORVALLIS,01/01/2016 11:57:00,,1685.00,1032.00,319.00,161.00,104.00,132.00,74.00,30.00,APPROVED
OR: CORVALLIS,01/01/2016 12:57:00,,1707.00,1044.00,323.00,164.00,103.00,139.00,74.00,30.00,APPROVED
OR: CORVALLIS,01/01/2016 13:58:00,,1713.00,1058.00,328.00,165.00,104.00,138.00,76.00,31.00,APPROVED
OR: CORVALLIS,01/01/2016 14:58:00,,1723.00,1076.00,333.00,164.00,107.00,140.00,76.00,30.00,APPROVED
OR: CORVALLIS,01/01/2016 15:58:00,,1722.00,1072.00,338.00,172.00,106.00,139.00,78.00,31.00,APPROVED
OR: CORVALLIS,01/01/2016 16:58:00,,1718.00,1075.00,335.00,167.00,106.00,139.00,77.00,32.00,APPROVED
OR: CORVALLIS,01/01/2016 17:58:00,,1711.00,1081.00,332.00,170.00,107.00,141.00,76.00,31.00,APPROVED
OR: CORVALLIS,01/01/2016 18:59:00,,1644.00,1060.00,334.00,170.00,106.00,138.00,80.00,30.00,APPROVED
OR: CORVALLIS,01/01/2016 19:59:00,,1572.00,1023.00,327.00,164.00,103.00,137.00,81.00,32.00,APPROVED
OR: CORVALLIS,01/01/2016 20:59:00,,1535.00,1000.00,326.00,163.00,106.00,136.00,80.00,31.00,APPROVED
OR: CORVALLIS,01/01/2016 21:59:00,,1494.00,980.00,324.00,162.00,105.00,134.00,82.00,31.00,APPROVED
OR: CORVALLIS,01/01/2016 22:59:00,,1484.00,966.00,319.00,162.00,106.00,135.00,81.00,30.00,APPROVED
OR: CORVALLIS,01/02/2016 00:00:00,,1482.00,955.00,316.00,161.00,106.00,133.00,79.00,31.00,APPROVED
OR: CORVALLIS,01/02/2016 01:00:00,,1511.00,971.00,312.00,162.00,103.00,134.00,81.00,32.00,APPROVED
OR: CORVALLIS,01/02/2016 02:00:00,,1601.00,1007.00,318.00,162.00,103.00,135.00,79.00,31.00,APPROVED
OR: CORVALLIS,01/02/2016 03:00:00,,1655.00,1029.00,318.00,163.00,104.00,135.00,80.00,30.00,APPROVED
OR: CORVALLIS,01/02/2016 04:00:00,,1663.00,1036.00,316.00,165.00,103.00,133.00,75.00,31.00,APPROVED
OR: CORVALLIS,01/02/2016 05:01:00,,1683.00,1036.00,319.00,161.00,105.00,132.00,77.00,31.00,APPROVED
OR: CORVALLIS,01/02/2016 06:01:00,,1697.00,1050.00,323.00,162.00,101.00,137.00,72.00,30.00,APPROVED
OR: CORVALLIS,01/02/2016 07:01:00,,1713.00,1066.00,331.00,165.00,106.00,137.00,75.00,30.00,APPROVED
OR: CORVALLIS,01/02/2016 08:01:00,,1740.00,1081.00,332.00,167.00,104.00,141.00,76.00,31.00,APPROVED
OR: CORVALLIS,01/02/2016 09:01:00,,1772.00,1098.00,336.00,169.00,108.00,142.00,76.00,31.00,APPROVED
OR: CORVALLIS,01/02/2016 10:02:00,,1797.00,1126.00,346.00,174.00,109.00,147.00,77.00,31.00,APPROVED
OR: CORVALLIS,01/02/2016 11:02:00,,1816.00,1150.00,355.00,178.00,110.00,152.00,75.00,32.00,APPROVED
OR: CORVALLIS,01/02/2016 12:02:00,,1828.00,1170.00,356.00,176.00,109.00,157.00,77.00,31.00,APPROVED
OR: CORVALLIS,01/02/2016 13:02:00,,1850.00,1189.00,365.00,183.00,116.00,156.00,75.00,33.00,APPROVED
OR: CORVALLIS,01/02/2016 14:02:00,,1859.00,1214.00,369.00,185.00,116.00,157.00,79.00,33.00,APPROVED
OR: CORVALLIS,01/02/2016 15:03:00,,1873.00,1213.00,372.00,182.00,116.00,162.00,78.00,33.00,APPROVED
OR: CORVALLIS,01/02/2016 16:03:00,,1881.00,1211.00,376.00,182.00,112.00,163.00,77.00,32.00,APPROVED
OR: CORVALLIS,01/02/2016 17:03:00,,1886.00,1232.00,375.00,187.00,115.00,166.00,77.00,34.00,APPROVED
OR: CORVALLIS,01/02/2016 18:03:00,,1888.00,1223.00,383.00,189.00,119.00,164.00,79.00,33.00,APPROVED
OR: CORVALLIS,01/02/2016 19:03:00,,1795.00,1176.00,365.00,188.00,114.00,158.00,83.00,32.00,APPROVED
OR: CORVALLIS,01/02/2016 20:04:00,,1705.00,1126.00,360.00,181.00,113.00,154.00,87.00,33.00,APPROVED
OR: CORVALLIS,01/02/2016 21:04:00,,1670.00,1117.00,366.00,182.00,114.00,155.00,87.00,34.00,APPROVED
OR: CORVALLIS,01/02/2016 22:04:00,,1645.00,1103.00,356.00,183.00,114.00,151.00,86.00,32.00,APPROVED
OR: CORVALLIS,01/02/2016 23:04:00,,1627.00,1072.00,356.00,179.00,113.00,151.00,87.00,33.00,APPROVED
OR: CORVALLIS,01/03/2016 00:04:00,,1591.00,1070.00,353.00,178.00,112.00,147.00,87.00,33.00,APPROVED
OR: CORVALLIS,01/03/2016 01:05:00,,1638.00,1091.00,350.00,180.00,110.00,149.00,86.00,32.00,APPROVED
OR: CORVALLIS,01/03/2016 02:05:00,,1727.00,1135.00,352.00,182.00,112.00,149.00,84.00,32.00,APPROVED
OR: CORVALLIS,01/03/2016 03:05:00,,1779.00,1152.00,360.00,181.00,111.00,156.00,84.00,32.00,APPROVED
OR: CORVALLIS,01/03/2016 04:05:00,,1806.00,1169.00,361.00,184.00,114.00,154.00,82.00,32.00,APPROVED
OR: CORVALLIS,01/03/2016 05:05:00,,1825.00,1180.00,370.00,186.00,113.00,157.00,86.00,32.00,APPROVED
OR: CORVALLIS,01/03/2016 06:06:00,,1831.00,1187.00,370.00,186.00,112.00,156.00,83.00,32.00,APPROVED
OR: CORVALLIS,01/03/2016 07:06:00,,1852.00,1203.00,374.00,187.00,114.00,158.00,82.00,32.00,APPROVED
OR: CORVALLIS,01/03/2016 08:06:00,,1877.00,1222.00,381.00,192.00,116.00,166.00,81.00,34.00,APPROVED
OR: CORVALLIS,01/03/2016 09:06:00,,1908.00,1246.00,385.00,193.00,119.00,165.00,81.00,34.00,APPROVED
OR: CORVALLIS,01/03/2016 10:06:00,,1921.00,1274.00,398.00,197.00,120.00,168.00,84.00,35.00,APPROVED
OR: CORVALLIS,01/03/2016 11:07:00,,1939.00,1287.00,404.00,200.00,122.00,173.00,84.00,35.00,APPROVED
OR: CORVALLIS,01/03/2016 12:07:00,,1965.00,1302.00,410.00,206.00,124.00,176.00,87.00,33.00,APPROVED
OR: CORVALLIS,01/03/2016 13:07:00,,1983.00,1325.00,421.00,211.00,127.00,179.00,88.00,35.00,APPROVED
OR: CORVALLIS,01/03/2016 14:07:00,,1917.00,1279.00,404.00,207.00,123.00,172.00,88.00,33.00,APPROVED
OR: CORVALLIS,01/03/2016 15:07:00,,1914.00,1273.00,405.00,197.00,124.00,168.00,88.00,34.00,APPROVED
OR: CORVALLIS,01/03/2016 16:08:00,,1907.00,1263.00,405.00,203.00,121.00,169.00,87.00,34.00,APPROVED
OR: CORVALLIS,01/03/2016 17:08:00,,1953.00,1332.00,419.00,210.00,125.00,178.00,92.00,34.00,APPROVED
OR: CORVALLIS,01/03/2016 18:08:00,,1941.00,1315.00,422.00,210.00,129.00,175.00,93.00,35.00,APPROVED
OR: CORVALLIS,01/03/2016 19:08:00,,1939.00,1339.00,431.00,215.00,128.00,181.00,95.00,35.00,APPROVED
OR: CORVALLIS,01/03/2016 20:08:00,,1979.00,1387.00,449.00,224.00,134.00,189.00,98.00,37.00,APPROVED
OR: CORVALLIS,01/03/2016 21:09:00,,2021.00,1419.00,457.00,231.00,136.00,197.00,98.00,38.00,APPROVED
OR: CORVALLIS,01/03/2016 22:09:00,,2029.00,1435.00,460.00,230.00,135.00,197.00,101.00,38.00,APPROVED
OR: CORVALLIS,01/03/2016 23:09:00,,1986.00,1406.00,456.00,233.00,136.00,192.00,101.00,38.00,APPROVED
OR: CORVALLIS,01/04/2016 00:09:00,,2028.00,1446.00,460.00,234.00,134.00,198.00,104.00,38.00,APPROVED
OR: CORVALLIS,01/04/2016 01:09:00,,2128.00,1534.00,494.00,249.00,142.00,208.00,107.00,39.00,APPROVED
OR: CORVALLIS,01/04/2016 02:10:00,,2185.00,1587.00,507.00,257.00,150.00,218.00,109.00,39.00,APPROVED
OR: CORVALLIS,01/04/2016 03:10:00,,2132.00,1538.00,502.00,253.00,145.00,214.00,107.00,39.00,APPROVED
OR: CORVALLIS,01/04/2016 04:10:00,,1980.00,1396.00,460.00,234.00,136.00,193.00,102.00,37.00,APPROVED
OR: CORVALLIS,01/04/2016 05:10:00,,1919.00,1356.00,438.00,224.00,132.00,187.00,99.00,36.00,APPROVED
OR: CORVALLIS,01/04/2016 06:10:00,,1906.00,1329.00,427.00,217.00,130.00,182.00,97.00,35.00,APPROVED
OR: CORVALLIS,01/04/2016 07:11:00,,1879.00,1302.00,426.00,213.00,128.00,179.00,98.00,36.00,APPROVED
OR: CORVALLIS,01/04/2016 08:11:00,,1870.00,1294.00,422.00,211.00,129.00,178.00,96.00,33.00,APPROVED
OR: CORVALLIS,01/04/2016 09:11:00,,1906.00,1340.00,438.00,217.00,132.00,186.00,98.00,35.00,APPROVED
OR: CORVALLIS,01/04/2016 10:11:00,,1923.00,1394.00,457.00,230.00,134.00,197.00,101.00,36.00,APPROVED
OR: CORVALLIS,01/04/2016 11:11:00,,1930.00,1397.00,457.00,236.00,137.00,198.00,103.00,36.00,APPROVED
OR: CORVALLIS,01/04/2016 12:12:00,,1972.00,1441.00,474.00,244.00,139.00,203.00,106.00,39.00,APPROVED
OR: CORVALLIS,01/04/2016 13:12:00,,1973.00,1464.00,484.00,247.00,141.00,210.00,111.00,37.00,APPROVED
OR: CORVALLIS,01/04/2016 14:12:00,,2079.00,1563.00,511.00,260.00,153.00,221.00,116.00,39.00,APPROVED
OR: CORVALLIS,01/04/2016 15:12:00,,2046.00,1524.00,504.00,256.00,150.00,221.00,110.00,40.00,APPROVED
OR: CORVALLIS,01/04/2016 16:12:00,,1981.00,1474.00,482.00,251.00,141.00,212.00,111.00,38.00,APPROVED
OR: CORVALLIS,01/04/2016 17:13:00,,1963.00,1460.00,476.00,247.00,145.00,210.00,110.00,38.00,APPROVED
OR: CORVALLIS,01/04/2016 18:13:00,,2020.00,1488.00,490.00,258.00,146.00,211.00,111.00,38.00,APPROVED
OR: CORVALLIS,01/04/2016 19:13:00,,1997.00,1488.00,491.00,252.00,146.00,213.00,112.00,40.00,APPROVED
OR: CORVALLIS,01/04/2016 20:23:00,,1777.00,1155.00,355.00,177.00,110.00,147.00,83.00,32.00,APPROVED
OR: CORVALLIS,01/04/2016 21:23:00,,1901.00,1386.00,451.00,231.00,138.00,198.00,104.00,38.00,APPROVED
OR: CORVALLIS,01/04/2016 22:23:00,,1940.00,1461.00,487.00,249.00,146.00,212.00,113.00,39.00,APPROVED
OR: CORVALLIS,01/04/2016 23:24:00,,1980.00,1508.00,513.00,256.00,150.00,222.00,117.00,40.00,APPROVED
OR: CORVALLIS,01/05/2016 00:24:00,,2029.00,1558.00,528.00,267.00,153.00,232.00,119.00,40.00,APPROVED
OR: CORVALLIS,01/05/2016 01:24:00,,2019.00,1556.00,530.00,268.00,152.00,227.00,119.00,41.00,APPROVED
OR: CORVALLIS,01/05/2016 02:24:00,,2057.00,1573.00,536.00,265.00,158.00,228.00,121.00,42.00,APPROVED
OR: CORVALLIS,01/05/2016 03:24:00,,1972.00,1490.00,505.00,257.00,147.00,219.00,114.00,39.00,APPROVED
OR: CORVALLIS,01/05/2016 04:25:00,,1952.00,1481.00,502.00,253.00,149.00,217.00,113.00,41.00,APPROVED
OR: CORVALLIS,01/05/2016 05:25:00,,1953.00,1474.00,498.00,248.00,147.00,220.00,114.00,40.00,APPROVED
OR: CORVALLIS,01/05/2016 06:25:00,,2008.00,1518.00,506.00,253.00,148.00,220.00,113.00,40.00,APPROVED
OR: CORVALLIS,01/05/2016 07:25:00,,1949.00,1425.00,478.00,240.00,141.00,205.00,107.00,38.00,APPROVED
OR: CORVALLIS,01/05/2016 08:25:00,,1889.00,1360.00,451.00,226.00,135.00,196.00,104.00,37.00,APPROVED
OR: CORVALLIS,01/05/2016 09:26:00,,1880.00,1362.00,453.00,227.00,136.00,196.00,103.00,36.00,APPROVED
OR: CORVALLIS,01/05/2016 10:26:00,,1917.00,1403.00,465.00,229.00,137.00,201.00,107.00,36.00,APPROVED
OR: CORVALLIS,01/05/2016 11:26:00,,2024.00,1499.00,499.00,246.00,143.00,212.00,111.00,39.00,APPROVED
OR: CORVALLIS,01/05/2016 12:26:00,,2043.00,1505.00,505.00,249.00,148.00,211.00,110.00,39.00,APPROVED
OR: CORVALLIS,01/05/2016 13:26:00,,2021.00,1490.00,499.00,249.00,146.00,209.00,113.00,40.00,APPROVED
OR: CORVALLIS,01/05/2016 14:27:00,,2018.00,1486.00,498.00,250.00,146.00,211.00,112.00,39.00,APPROVED
OR: CORVALLIS,01/05/2016 15:27:00,,2003.00,1491.00,497.00,250.00,145.00,210.00,114.00,40.00,APPROVED
OR: CORVALLIS,01/05/2016 16:27:00,,1961.00,1469.00,495.00,251.00,144.00,214.00,114.00,39.00,APPROVED
OR: CORVALLIS,01/05/2016 17:27:00,,2031.00,1491.00,496.00,246.00,145.00,214.00,109.00,39.00,APPROVED
OR: CORVALLIS,01/05/2016 18:27:00,,2003.00,1467.00,490.00,239.00,142.00,205.00,109.00,40.00,APPROVED
OR: CORVALLIS,01/05/2016 19:28:00,,1961.00,1429.00,483.00,240.00,141.00,203.00,109.00,39.00,APPROVED
OR: CORVALLIS,01/05/2016 20:28:00,,1936.00,1399.00,468.00,232.00,142.00,201.00,109.00,38.00,APPROVED
OR: CORVALLIS,01/05/2016 21:28:00,,1911.00,1372.00,470.00,231.00,140.00,199.00,108.00,38.00,APPROVED
OR: CORVALLIS,01/05/2016 22:28:00,,1873.00,1338.00,458.00,226.00,137.00,194.00,105.00,39.00,APPROVED
OR: CORVALLIS,01/05/2016 23:28:00,,1853.00,1343.00,463.00,227.00,139.00,194.00,106.00,39.00,APPROVED
OR: CORVALLIS,01/06/2016 00:29:00,,1893.00,1393.00,476.00,235.00,142.00,205.00,110.00,39.00,APPROVED
OR: CORVALLIS,01/06/2016 01:29:00,,1863.00,1418.00,489.00,246.00,142.00,210.00,111.00,38.00,APPROVED
OR: CORVALLIS,01/06/2016 02:29:00,,1865.00,1406.00,482.00,246.00,144.00,209.00,111.00,40.00,APPROVED
OR: CORVALLIS,01/06/2016 03:29:00,,1861.00,1413.00,485.00,241.00,143.00,209.00,112.00,39.00,APPROVED
OR: CORVALLIS,01/06/2016 04:29:00,,1864.00,1415.00,493.00,246.00,145.00,209.00,115.00,39.00,APPROVED
OR: CORVALLIS,01/06/2016 05:30:00,,1890.00,1468.00,508.00,250.00,148.00,220.00,116.00,40.00,APPROVED
OR: CORVALLIS,01/06/2016 06:30:00,,1932.00,1503.00,519.00,259.00,152.00,227.00,119.00,41.00,APPROVED
OR: CORVALLIS,01/06/2016 07:30:00,,1912.00,1496.00,521.00,260.00,152.00,227.00,119.00,40.00,APPROVED
OR: CORVALLIS,01/06/2016 08:30:00,,1884.00,1450.00,509.00,254.00,149.00,222.00,117.00,40.00,APPROVED
OR: CORVALLIS,01/06/2016 09:30:00,,1886.00,1457.00,503.00,254.00,147.00,219.00,117.00,39.00,APPROVED
OR: CORVALLIS,01/06/2016 10:31:00,,1887.00,1455.00,501.00,251.00,148.00,218.00,117.00,42.00,APPROVED
OR: CORVALLIS,01/06/2016 11:31:00,,1852.00,1410.00,489.00,239.00,144.00,211.00,113.00,40.00,APPROVED
OR: CORVALLIS,01/06/2016 12:31:00,,1864.00,1395.00,478.00,237.00,139.00,206.00,106.00,39.00,APPROVED
OR: CORVALLIS,01/06/2016 13:31:00,,1859.00,1391.00,474.00,234.00,139.00,201.00,110.00,37.00,APPROVED
OR: CORVALLIS,01/06/2016 14:31:00,,1868.00,1408.00,476.00,238.00,142.00,206.00,110.00,39.00,APPROVED
OR: CORVALLIS,01/06/2016 15:32:00,,1837.00,1384.00,468.00,229.00,140.00,200.00,106.00,39.00,APPROVED
OR: CORVALLIS,01/06/2016 16:32:00,,1890.00,1422.00,480.00,237.00,142.00,205.00,110.00,38.00,APPROVED
OR: CORVALLIS,01/06/2016 17:32:00,,1984.00,1449.00,486.00,242.00,143.00,205.00,108.00,40.00,APPROVED
OR: CORVALLIS,01/06/2016 18:32:00,,1969.00,1405.00,466.00,232.00,139.00,196.00,106.00,38.00,APPROVED
OR: CORVALLIS,01/06/2016 19:32:00,,1903.00,1344.00,448.00,221.00,135.00,191.00,103.00,37.00,APPROVED
OR: CORVALLIS,01/06/2016 20:33:00,,1875.00,1326.00,446.00,218.00,135.00,193.00,103.00,37.00,APPROVED
OR: CORVALLIS,01/06/2016 21:33:00,,1869.00,1353.00,451.00,223.00,135.00,193.00,106.00,37.00,APPROVED
OR: CORVALLIS,01/06/2016 22:33:00,,1838.00,1326.00,451.00,226.00,134.00,191.00,104.00,38.00,APPROVED
OR: CORVALLIS,01/06/2016 23:33:00,,1812.00,1279.00,436.00,210.00,132.00,182.00,99.00,36.00,APPROVED
OR: CORVALLIS,01/07/2016 00:33:00,,1779.00,1252.00,421.00,209.00,127.00,182.00,99.00,35.00,APPROVED
OR: CORVALLIS,01/07/2016 01:34:00,,1739.00,1241.00,422.00,212.00,126.00,179.00,99.00,35.00,APPROVED
OR: CORVALLIS,01/07/2016 02:34:00,,1776.00,1268.00,426.00,212.00,128.00,181.00,101.00,35.00,APPROVED
OR: CORVALLIS,01/07/2016 03:34:00,,1792.00,1289.00,435.00,222.00,131.00,184.00,104.00,36.00,APPROVED
OR: CORVALLIS,01/07/2016 04:34:00,,1853.00,1346.00,457.00,226.00,135.00,197.00,110.00,38.00,APPROVED
OR: CORVALLIS,01/07/2016 05:34:00,,1841.00,1343.00,455.00,227.00,135.00,192.00,107.00,38.00,APPROVED
OR: CORVALLIS,01/07/2016 06:35:00,,1855.00,1350.00,458.00,229.00,134.00,194.00,103.00,40.00,APPROVED
OR: CORVALLIS,01/07/2016 07:35:00,,1856.00,1333.00,451.00,226.00,132.00,192.00,104.00,36.00,APPROVED
OR: CORVALLIS,01/07/2016 08:35:00,,1800.00,1286.00,431.00,212.00,132.00,181.00,101.00,37.00,APPROVED
OR: CORVALLIS,01/07/2016 09:35:00,,1780.00,1285.00,429.00,216.00,128.00,181.00,101.00,37.00,APPROVED
OR: CORVALLIS,01/07/2016 10:35:00,,1788.00,1298.00,436.00,213.00,129.00,186.00,103.00,38.00,APPROVED
OR: CORVALLIS,01/07/2016 11:36:00,,1808.00,1319.00,442.00,223.00,134.00,189.00,102.00,38.00,APPROVED
OR: CORVALLIS,01/07/2016 12:36:00,,1840.00,1343.00,452.00,225.00,138.00,192.00,104.00,37.00,APPROVED
OR: CORVALLIS,01/07/2016 13:36:00,,1819.00,1339.00,450.00,228.00,134.00,193.00,105.00,39.00,APPROVED
OR: CORVALLIS,01/07/2016 14:36:00,,1843.00,1337.00,459.00,228.00,136.00,193.00,106.00,38.00,APPROVED
OR: CORVALLIS,01/07/2016 15:36:00,,1869.00,1389.00,466.00,234.00,138.00,198.00,107.00,40.00,APPROVED
OR: CORVALLIS,01/07/2016 16:37:00,,1939.00,1484.00,507.00,255.00,145.00,218.00,119.00,40.00,APPROVED
OR: CORVALLIS,01/07/2016 17:37:00,,2055.00,1601.00,553.00,270.00,159.00,236.00,123.00,42.00,APPROVED
OR: CORVALLIS,01/07/2016 18:37:00,,2022.00,1570.00,544.00,269.00,158.00,234.00,123.00,43.00,APPROVED
OR: CORVALLIS,01/07/2016 19:37:00,,1978.00,1517.00,522.00,260.00,154.00,224.00,121.00,41.00,APPROVED
OR: CORVALLIS,01/07/2016 20:37:00,,1973.00,1491.00,516.00,256.00,150.00,220.00,117.00,40.00,APPROVED
OR: CORVALLIS,01/07/2016 21:35:00,,1900.00,1428.00,498.00,248.00,145.00,209.00,116.00,39.00,APPROVED
OR: CORVALLIS,01/07/2016 22:41:00,,1717.00,1075.00,334.00,169.00,107.00,136.00,81.00,31.00,APPROVED
OR: CORVALLIS,01/07/2016 23:41:00,,1814.00,1248.00,404.00,204.00,124.00,168.00,97.00,34.00,APPROVED
OR: CORVALLIS,01/08/2016 00:41:00,,1789.00,1240.00,406.00,212.00,125.00,174.00,98.00,35.00,APPROVED
OR: CORVALLIS,01/08/2016 01:41:00,,1724.00,1216.00,399.00,208.00,124.00,173.00,96.00,36.00,APPROVED
OR: CORVALLIS,01/08/2016 02:42:00,,1755.00,1248.00,416.00,213.00,128.00,178.00,99.00,35.00,APPROVED
OR: CORVALLIS,01/08/2016 03:42:00,,1753.00,1274.00,420.00,214.00,131.00,180.00,100.00,37.00,APPROVED
OR: CORVALLIS,01/08/2016 04:42:00,,1757.00,1261.00,419.00,215.00,130.00,182.00,100.00,35.00,APPROVED
OR: CORVALLIS,01/08/2016 05:42:00,,1753.00,1257.00,421.00,218.00,127.00,177.00,100.00,36.00,APPROVED
OR: CORVALLIS,01/08/2016 06:42:00,,1754.00,1238.00,406.00,212.00,124.00,177.00,99.00,36.00,APPROVED
OR: CORVALLIS,01/08/2016 07:43:00,,1725.00,1211.00,404.00,208.00,123.00,171.00,96.00,36.00,APPROVED
OR: CORVALLIS,01/08/2016 08:43:00,,1713.00,1194.00,392.00,207.00,123.00,171.00,97.00,34.00,APPROVED
OR: CORVALLIS,01/08/2016 09:43:00,,1710.00,1199.00,395.00,206.00,123.00,171.00,95.00,35.00,APPROVED
OR: CORVALLIS,01/08/2016 10:43:00,,1716.00,1188.00,393.00,201.00,123.00,170.00,96.00,36.00,APPROVED
OR: CORVALLIS,01/08/2016 11:43:00,,1715.00,1197.00,403.00,203.00,123.00,174.00,97.00,35.00,APPROVED
OR: CORVALLIS,01/08/2016 12:44:00,,1710.00,1187.00,392.00,202.00,124.00,169.00,95.00,35.00,APPROVED
OR: CORVALLIS,01/08/2016 13:44:00,,1708.00,1188.00,390.00,201.00,122.00,169.00,97.00,35.00,APPROVED
OR: CORVALLIS,01/08/2016 14:44:00,,1704.00,1182.00,391.00,199.00,121.00,169.00,94.00,36.00,APPROVED
OR: CORVALLIS,01/08/2016 15:44:00,,1676.00,1161.00,380.00,196.00,121.00,165.00,93.00,34.00,APPROVED
OR: CORVALLIS,01/08/2016 16:44:00,,1674.00,1121.00,374.00,188.00,118.00,160.00,89.00,33.00,APPROVED
OR: CORVALLIS,01/08/2016 17:45:00,,1747.00,1157.00,373.00,189.00,116.00,156.00,90.00,33.00,APPROVED
OR: CORVALLIS,01/08/2016 18:45:00,,1739.00,1158.00,373.00,190.00,116.00,159.00,88.00,33.00,APPROVED
OR: CORVALLIS,01/08/2016 19:45:00,,1745.00,1175.00,383.00,192.00,118.00,160.00,90.00,34.00,APPROVED
OR: CORVALLIS,01/08/2016 20:45:00,,1739.00,1176.00,387.00,195.00,118.00,165.00,92.00,34.00,APPROVED
OR: CORVALLIS,01/08/2016 21:45:00,,1678.00,1129.00,373.00,190.00,114.00,160.00,92.00,34.00,APPROVED
OR: CORVALLIS,01/08/2016 22:45:00,,1694.00,1135.00,368.00,189.00,113.00,158.00,89.00,34.00,APPROVED
OR: CORVALLIS,01/08/2016 23:46:00,,1699.00,1147.00,371.00,188.00,117.00,155.00,89.00,33.00,APPROVED
OR: CORVALLIS,01/09/2016 00:46:00,,1649.00,1123.00,371.00,192.00,117.00,156.00,90.00,35.00,APPROVED
OR: CORVALLIS,01/09/2016 01:46:00,,1640.00,1123.00,371.00,193.00,115.00,154.00,92.00,35.00,APPROVED
OR: CORVALLIS,01/09/2016 02:46:00,,1663.00,1156.00,382.00,197.00,121.00,164.00,94.00,34.00,APPROVED
OR: CORVALLIS,01/09/2016 03:46:00,,1679.00,1170.00,384.00,199.00,120.00,166.00,92.00,34.00,APPROVED
OR: CORVALLIS,01/09/2016 04:47:00,,1676.00,1170.00,388.00,198.00,120.00,168.00,93.00,33.00,APPROVED
OR: CORVALLIS,01/09/2016 05:47:00,,1697.00,1192.00,395.00,205.00,121.00,165.00,94.00,35.00,APPROVED
OR: CORVALLIS,01/09/2016 06:47:00,,1701.00,1202.00,393.00,205.00,123.00,174.00,95.00,36.00,APPROVED
OR: CORVALLIS,01/09/2016 07:47:00,,1732.00,1212.00,398.00,205.00,125.00,171.00,95.00,35.00,APPROVED
OR: CORVALLIS,01/09/2016 08:47:00,,1778.00,1219.00,398.00,204.00,121.00,167.00,95.00,34.00,APPROVED
OR: CORVALLIS,01/09/2016 09:48:00,,1745.00,1171.00,376.00,193.00,116.00,160.00,89.00,35.00,APPROVED
OR: CORVALLIS,01/09/2016 10:48:00,,1751.00,1185.00,377.00,193.00,118.00,156.00,93.00,33.00,APPROVED
OR: CORVALLIS,01/09/2016 11:48:00,,1747.00,1169.00,377.00,195.00,117.00,159.00,92.00,35.00,APPROVED
OR: CORVALLIS,01/09/2016 12:48:00,,1678.00,1124.00,357.00,188.00,115.00,155.00,87.00,33.00,APPROVED
OR: CORVALLIS,01/09/2016 13:48:00,,1641.00,1078.00,345.00,178.00,114.00,148.00,84.00,32.00,APPROVED
OR: CORVALLIS,01/09/2016 14:49:00,,1628.00,1073.00,347.00,175.00,110.00,147.00,84.00,32.00,APPROVED
OR: CORVALLIS,01/09/2016 15:49:00,,1631.00,1083.00,348.00,177.00,111.00,147.00,85.00,34.00,APPROVED
OR: CORVALLIS,01/09/2016 16:49:00,,1617.00,1076.00,342.00,176.00,109.00,148.00,87.00,32.00,APPROVED
OR: CORVALLIS,01/09/2016 17:49:00,,1612.00,1066.00,344.00,176.00,110.00,146.00,85.00,32.00,APPROVED
OR: CORVALLIS,01/09/2016 18:49:00,,1583.00,1043.00,342.00,175.00,109.00,143.00,86.00,32.00,APPROVED
OR: CORVALLIS,01/09/2016 19:50:00,,1539.00,1008.00,331.00,170.00,107.00,140.00,82.00,32.00,APPROVED
OR: CORVALLIS,01/09/2016 20:50:00,,1475.00,970.00,324.00,166.00,102.00,138.00,81.00,30.00,APPROVED
OR: CORVALLIS,01/09/2016 21:50:00,,1409.00,917.00,312.00,155.00,102.00,130.00,79.00,31.00,APPROVED
OR: CORVALLIS,01/09/2016 22:50:00,,1390.00,886.00,297.00,151.00,98.00,124.00,78.00,30.00,APPROVED
OR: CORVALLIS,01/09/2016 23:50:00,,1408.00,896.00,300.00,149.00,99.00,124.00,79.00,29.00,APPROVED
OR: CORVALLIS,01/10/2016 00:51:00,,1440.00,917.00,303.00,155.00,98.00,127.00,78.00,31.00,APPROVED
OR: CORVALLIS,01/10/2016 01:51:00,,1458.00,928.00,306.00,157.00,98.00,128.00,78.00,31.00,APPROVED
OR: CORVALLIS,01/10/2016 02:51:00,,1476.00,948.00,311.00,156.00,103.00,133.00,77.00,31.00,APPROVED
OR: CORVALLIS,01/10/2016 03:51:00,,1485.00,950.00,312.00,156.00,102.00,131.00,80.00,31.00,APPROVED
OR: CORVALLIS,01/10/2016 04:51:00,,1487.00,950.00,317.00,161.00,101.00,133.00,81.00,31.00,APPROVED
OR: CORVALLIS,01/10/2016 05:52:00,,1515.00,995.00,328.00,165.00,106.00,138.00,83.00,32.00,APPROVED
OR: CORVALLIS,01/10/2016 06:52:00,,1539.00,1020.00,336.00,169.00,106.00,145.00,84.00,33.00,APPROVED
OR: CORVALLIS,01/10/2016 07:52:00,,1561.00,1033.00,338.00,173.00,107.00,145.00,83.00,32.00,APPROVED
OR: CORVALLIS,01/10/2016 08:52:00,,1568.00,1033.00,340.00,177.00,108.00,143.00,85.00,33.00,APPROVED
OR: CORVALLIS,01/10/2016 09:52:00,,1545.00,1026.00,332.00,173.00,108.00,141.00,83.00,31.00,APPROVED
OR: CORVALLIS,01/10/2016 10:53:00,,1558.00,1037.00,335.00,174.00,108.00,141.00,85.00,34.00,APPROVED
OR: CORVALLIS,01/10/2016 11:53:00,,1618.00,1070.00,349.00,177.00,111.00,146.00,87.00,31.00,APPROVED
OR: CORVALLIS,01/10/2016 12:53:00,,1630.00,1104.00,358.00,184.00,114.00,154.00,90.00,34.00,APPROVED
OR: CORVALLIS,01/10/2016 13:53:00,,1662.00,1128.00,368.00,186.00,114.00,153.00,91.00,35.00,APPROVED
OR: CORVALLIS,01/10/2016 14:53:00,,1677.00,1149.00,372.00,188.00,118.00,157.00,91.00,33.00,APPROVED
OR: CORVALLIS,01/10/2016 15:54:00,,1698.00,1156.00,371.00,187.00,118.00,158.00,89.00,34.00,APPROVED
OR: CORVALLIS,01/10/2016 16:54:00,,1719.00,1163.00,371.00,191.00,117.00,162.00,88.00,35.00,APPROVED
OR: CORVALLIS,01/10/2016 17:54:00,,1720.00,1178.00,384.00,197.00,119.00,162.00,91.00,33.00,APPROVED
OR: CORVALLIS,01/10/2016 18:54:00,,1729.00,1210.00,402.00,204.00,124.00,170.00,93.00,35.00,APPROVED
OR: CORVALLIS,01/10/2016 19:54:00,,1722.00,1216.00,399.00,203.00,123.00,170.00,95.00,36.00,APPROVED
OR: CORVALLIS,01/10/2016 20:55:00,,1650.00,1155.00,388.00,197.00,120.00,167.00,94.00,36.00,APPROVED